This demonstration page uses our WeatherBlox Daily Observations layout. Learn more.

Left ArrowRight Arrow

38.20091, -84.87328

Hourly Observations for April 5, 2016

Temp ( °F °C ) Dew Point ( °F °C ) Humidity (%) Winds ( mph kmh ) Pressure ( in mb ) Visibility ( mi km ) Precip ( " mm )
12:05 am 00:05 Cloudy 40 4.4 28 -2.2 63 63 NNW 14 22 30.30 1026 10 16 0.00 0.00
12:26 am 00:26 Cloudy 40 4.4 26 -3.3 58 58 N 12 19 30.30 1026 10 16 0.00 0.00
12:53 am 00:53 Cloudy 39 3.9 26 -3.3 60 60 NNW 9 15 30.27 1025 10 16 0.00 0.00
1:53 am 01:53 Cloudy 38 3.3 26 -3.3 62 62 NNW 12 19 30.29 1026 10 16 0.00 0.00
2:53 am 02:53 Cloudy 38 3.3 27 -2.8 65 65 NNW 8 13 30.29 1026 10 16 0.00 0.00
3:53 am 03:53 Cloudy 36 2.2 31 -0.6 82 82 N 5 7 30.30 1026 10 16 0.00 0.03
4:15 am 04:15 Cloudy 36 2.2 31 -0.6 82 82 NNE 5 7 30.36 1028 10 16 0.00 0.00
4:53 am 04:53 Cloudy 36 2.2 28 -2.2 73 73 NNE 6 9 30.31 1027 10 16 0.00 0.00
5:09 am 05:09 Cloudy 36 2.2 28 -2.2 73 73 NNE 5 7 30.39 1029 10 16 0.00 0.00
5:19 am 05:19 Cloudy 37 2.8 27 -2.8 67 67 NNE 6 9 30.39 1029 10 16 0.00 0.00
5:53 am 05:53 Cloudy 37 2.8 27 -2.8 67 67 NNE 6 9 30.34 1027 10 16 0.00 0.00
6:53 am 06:53 Cloudy 36 2.2 25 -3.9 64 64 ENE 8 13 30.36 1028 10 16 0.00 0.00
7:53 am 07:53 Cloudy 36 2.2 26 -3.3 67 67 E 10 17 30.39 1029 10 16 0.00 0.00
8:53 am 08:53 Cloudy 36 2.2 25 -3.9 64 64 E 9 15 30.41 1030 10 16 0.00 0.00
9:53 am 09:53 Partly Cloudy 37 2.8 23 -5 57 57 ENE 8 13 30.42 1030 10 16 0.00 0.00
10:53 am 10:53 Mostly Cloudy 39 3.9 21 -6.1 48 48 ENE 8 13 30.44 1031 10 16 0.00 0.00
11:53 am 11:53 Mostly Cloudy 41 5 22 -5.6 47 47 E 12 19 30.45 1031 10 16 0.00 0.00
12:53 pm 12:53 Sunny 43 6.1 22 -5.6 43 43 NNE 8 13 30.45 1031 10 16 0.00 0.00
1:53 pm 13:53 Sunny 45 7.2 23 -5 42 42 N 3 6 30.42 1030 10 16 0.00 0.00
2:53 pm 14:53 Sunny 47 8.3 24 -4.4 41 41 E 12 19 30.40 1030 10 16 0.00 0.00
3:53 pm 15:53 Sunny 48 8.9 23 -5 37 37 E 9 15 30.37 1029 10 16 0.00 0.00
4:53 pm 16:53 Sunny 48 8.9 24 -4.4 39 39 E 8 13 30.35 1028 10 16 0.00 0.00
5:53 pm 17:53 Sunny 49 9.4 23 -5 36 36 ESE 9 15 30.35 1028 10 16 0.00 0.00
6:53 pm 18:53 Sunny 47 8.3 22 -5.6 37 37 E 9 15 30.33 1027 10 16 0.00 0.00
8:53 pm 20:53 Clear 43 6.1 20 -6.7 40 40 E 3 6 30.30 1026 10 16 0.00 0.00
9:53 pm 21:53 Clear 40 4.4 22 -5.6 49 49 E 5 7 30.28 1026 10 16 0.00 0.00
10:53 pm 22:53 Clear 40 4.4 22 -5.6 49 49 E 6 9 30.26 1025 10 16 0.00 0.00
11:53 pm 23:53 Clear 39 3.9 22 -5.6 50 50 E 7 11 30.21 1023 10 16 0.00 0.00

Powered by AerisWeather